Time,TemperatureF,DewpointF,PressureIn,WindDirection,WindDirectionDegrees,WindSpeedMPH,WindSpeedGustMPH,Humidity,HourlyPrecipIn,Conditions,Clouds,dailyrainin,SoftwareType,DateUTC
2013-09-08 11:51:00,81.3,54.0,29.88,WSW,248,0.0,4.7,39,0.00,,SCT,-99.99,VWS V12.07,2013-09-08 09:51:00,
2013-09-08 12:05:00,81.7,52.9,29.88,SSE,168,5.1,6.5,37,0.00,,SCT,-99.99,VWS V12.07,2013-09-08 10:05:00,
2013-09-08 12:16:00,81.9,52.3,29.88,SSE,158,4.0,6.0,36,0.00,,SCT,-99.99,VWS V12.07,2013-09-08 10:16:00,
2013-09-08 12:31:00,82.4,50.4,29.88,West,275,4.5,6.9,33,0.00,,SCT,-99.99,VWS V12.07,2013-09-08 10:31:00,
2013-09-08 12:41:00,82.9,50.9,29.88,SW,236,6.5,6.5,33,0.00,,SCT200,-99.99,VWS V12.07,2013-09-08 10:41:00,
2013-09-08 12:55:00,84.2,50.3,29.88,WSW,249,4.0,5.1,31,0.00,,SCT200,-99.99,VWS V12.07,2013-09-08 10:55:00,
2013-09-08 13:11:00,84.6,49.8,29.88,SSW,199,3.6,6.0,30,0.00,,SCT200,-99.99,VWS V12.07,2013-09-08 11:11:00,
2013-09-08 13:19:00,84.6,48.8,29.88,WSW,254,6.5,6.5,29,0.00,,SCT200,-99.99,VWS V12.07,2013-09-08 11:19:00,
2013-09-08 13:35:00,85.1,50.2,29.88,SSE,153,2.7,7.4,30,0.00,,SCT200,-99.99,VWS V12.07,2013-09-08 11:35:00,
2013-09-08 13:51:00,86.4,48.5,29.85,SW,216,6.0,6.9,27,0.00,,BKN200,-99.99,VWS V12.07,2013-09-08 11:51:00,
2013-09-08 14:01:00,85.6,47.9,29.85,South,189,4.5,8.7,27,0.00,,BKN200,-99.99,VWS V12.07,2013-09-08 12:01:00,
2013-09-08 14:15:00,85.6,49.8,29.85,WSW,240,8.7,8.7,29,0.00,,BKN200,-99.99,VWS V12.07,2013-09-08 12:15:00,
2013-09-08 14:22:00,85.5,50.5,29.85,SSW,202,8.9,9.4,30,0.00,,BKN200,-99.99,VWS V12.07,2013-09-08 12:22:00,
2013-09-08 14:31:00,84.7,49.9,29.85,SSW,209,6.5,11.2,30,0.00,,BKN200,-99.99,VWS V12.07,2013-09-08 12:31:00,
2013-09-08 14:55:00,84.0,48.4,29.85,West,280,6.5,9.4,29,0.00,,BKN200,-99.99,VWS V12.07,2013-09-08 12:55:00,
2013-09-08 15:11:00,83.3,48.7,29.85,SW,233,6.0,6.0,30,0.00,,BKN200,-99.99,VWS V12.07,2013-09-08 13:11:00,
2013-09-08 15:22:00,83.8,48.2,29.85,SW,225,6.5,10.3,29,0.00,,BKN200,-99.99,VWS V12.07,2013-09-08 13:22:00,
2013-09-08 15:48:00,84.2,44.6,29.85,WNW,288,4.5,8.3,25,0.00,,BKN200,-99.99,VWS V12.07,2013-09-08 13:48:00,
2013-09-08 15:57:00,84.2,47.6,29.85,WSW,240,5.6,8.9,28,0.00,,BKN200,-99.99,VWS V12.07,2013-09-08 13:57:00,
2013-09-08 16:11:00,83.8,48.2,29.85,WSW,245,6.5,10.3,29,0.00,,BKN200,-99.99,VWS V12.07,2013-09-08 14:11:00,
2013-09-08 16:29:00,83.7,48.1,29.85,WSW,245,8.3,8.3,29,0.00,,BKN200,-99.99,VWS V12.07,2013-09-08 14:29:00,
2013-09-08 16:52:00,82.9,49.2,29.85,SW,222,4.0,5.6,31,0.00,,BKN200,-99.99,VWS V12.07,2013-09-08 14:52:00,
2013-09-08 17:04:00,83.5,48.8,29.85,SSW,194,4.7,4.7,30,0.00,,BKN200,-99.99,VWS V12.07,2013-09-08 15:04:00,
2013-09-08 17:11:00,82.9,48.3,29.85,SSW,211,5.6,8.7,30,0.00,,BKN200,-99.99,VWS V12.07,2013-09-08 15:11:00,
2013-09-08 17:18:00,82.9,48.3,29.85,SW,229,4.5,7.4,30,0.00,,BKN200,-99.99,VWS V12.07,2013-09-08 15:18:00,
2013-09-08 18:21:00,80.4,54.6,29.85,SW,223,4.7,5.6,41,0.00,,BKN200,-99.99,VWS V12.07,2013-09-08 16:21:00,
2013-09-08 18:31:00,79.7,53.9,29.85,SSW,202,0.0,5.1,41,0.00,,BKN200,-99.99,VWS V12.07,2013-09-08 16:31:00,
2013-09-08 19:53:00,76.5,60.6,29.85,North,357,0.0,3.1,58,0.00,,,-99.99,VWS V12.07,2013-09-08 17:53:00,
2013-09-08 20:21:00,75.9,61.5,29.85,North,357,0.0,0.0,61,0.00,,BKN200,-99.99,VWS V12.07,2013-09-08 18:21:00,
2013-09-08 20:32:00,76.1,61.7,29.88,North,356,0.0,2.7,61,0.00,,BKN200,-99.99,VWS V12.07,2013-09-08 18:32:00,
2013-09-08 20:45:00,75.7,61.8,29.88,North,357,0.0,0.0,62,0.00,,BKN200,-99.99,VWS V12.07,2013-09-08 18:45:00,
2013-09-08 20:56:00,75.7,61.3,29.85,North,356,2.7,3.1,61,0.00,,BKN,-99.99,VWS V12.07,2013-09-08 18:56:00,
2013-09-08 21:01:00,75.7,61.8,29.85,North,356,3.6,4.0,62,0.00,,BKN,-99.99,VWS V12.07,2013-09-08 19:01:00,
2013-09-08 21:15:00,75.6,61.6,29.85,North,357,0.0,0.0,62,0.00,,BKN,-99.99,VWS V12.07,2013-09-08 19:15:00,
2013-09-08 22:50:00,74.3,62.2,29.85,North,357,0.0,2.7,66,0.00,,SCT200,-99.99,VWS V12.07,2013-09-08 20:50:00,